Location: Carnières
(50.1682°N, 3.3474°E)
Time: 04:36:30
(UTC+00:00)

SL-16 R/B - Pass Details

Date: 10 August 2024
Orbit: 842 x 845 km, 71.0° (Epoch: 16 September)

Event Time Altitude Azimuth Distance (km) Brightness Sun altitude
Exits shadow 02:39:00 - 276° (W) 2,988 4.7 -14.8°
Reaches altitude 10° 02:41:03 10° 290° (WNW) 2,470 4.4 -14.6°
Maximum altitude 02:44:32 16° 329° (NNW) 2,054 4.4 -14.2°
Drops below altitude 10° 02:48:03 10° 7° (N) 2,477 5.5 -13.9°
Sets 02:51:31 0° 28° (NNE) 3,415 7.0 -13.5°
